Weather in Dolomiti di Brenta

Italy     46°08′37″N   10°57′51″E
temp.,
°C
wind,
m/s
gust,
m/s
humid.,
%
clouds,
%
prec.,
mm/h
press.,
hPa
HPBL,
m
16 april, fri
fri1623:00−5wnw219261 0.1 102519
02:00−5wnw219338 0.1 102532
05:00−5nnw22835 0.0 102456
08:00−3nne22693 0.0 1023273
11:00+2e21485 0.0 1021883
14:00+6ese223638 0.0 10181814
17:00+6se213667 0.1 10161799
20:000ssw348119 0.2 101981
17 april, sat
sat1723:00−2wnw218211 0.0 102219
02:00−3nw21765 0.0 102127
05:00−3nw227396 0.0 102136
08:00−1n125776 0.0 1019233
11:00+5ene2341100 0.0 1016891
14:00+8e2234100 0.0 10131514
17:00+8e1236100 0.0 10121487
20:00+2sw116866 0.0 101428
18 april, sun
sun1823:00−1wnw217786 0.0 101718
02:00−1wnw2176100 0.0 101815
05:00−2nw2174100 0.0 101721
08:00+1n1261100 0.0 1016250
11:00+5e2247100 0.0 1015950
14:00+8se2241100 0.1 10121567
17:00+7s2255100 0.2 10111239
20:00+2ssw1296100 2.4 1015142
19 april, mon
mon1923:00+2sse0195100 1.3 1017168
02:00+1n119368 1.4 1017196
05:00−1nw2186100 0.1 101824
08:00+1n127453 0.1 1017186
11:00+6ene12527 0.0 1014966
14:00+9sse224077 0.2 10111923
17:00+7ssw2256100 0.6 10101043
20:00+4ssw1186100 1.8 101320
20 april, tue
tue2023:00+2nw119180 0.5 101515
02:00+1wnw118987 0.5 101536
05:000nw218776 0.0 101519
08:00+2n117879 0.0 1015183
11:00+7ese116165 0.1 1013927
14:00+9sse225162 0.8 10101624
17:00+8s335883 0.9 10091286
20:00+4ssw248886 1.9 101291